Location: Newark
(51.3318°N, 0.0053°E)
Time: 22:19:51
(UTC+00:00)

DIWATA 2B (PO-101) - Pass Details

Date: 04 July 2022
Orbit: 583 x 599 km, 98.0° (Epoch: 16 August)

Event Time Altitude Azimuth Distance (km) Brightness Sun altitude
Exits shadow 02:04:33 13° 183° (S) 1,725 ? -11.2°
Maximum altitude 02:08:09 55° 259° (W) 729 ? -11.0°
Drops below altitude 10° 02:12:19 10° 338° (NNW) 1,952 ? -10.6°
Sets 02:14:33 0° 343° (NNW) 2,859 ? -10.5°
